Wind_Speed
12 11 10 10 8 7 7 6 6 5 4 4 5 6 6 6 4 3 4 4 6 8 9 9 9 9 9 9 7 3 2 3 3 5 5 4 4 4 4 3 6 8 7 5 4 3 2 3 3 1 3 4 6 6 5 7 7 3 2 3 3 3 3 2 4 6 7 4 6 7 9 10 6 8 14 17 19 23 25 24 21 20 19 19 20 20 18 18
12 11 11 10 9 7 7 6 6 5 4 4 5 6 5 4 3 3 3 4 6 8 10 10 10 10 10 9 6 3 3 5 6 7 6 3 3 6 5 6 6 5 3 2 0 2 2 1 2 3 7 8 8 7 6 6 4 3 2 4 2 3 2 4 8 10 8 7 8 10 12 10 6 8 11 11 12 18 21 21 23 22 21 21 22 22 21 20
12 12 11 10 9 8 7 6 6 5 4 4 5 5 4 3 2 2 3 4 6 8 10 10 10 10 10 9 6 5 5 7 8 7 5 4 6 7 5 5 3 2 2 1 2 5 5 6 6 7 10 9 11 10 6 7 5 3 3 5 2 5 6 8 12 11 11 13 11 11 17 16 10 12 13 12 11 13 15 14 16 17 20 22 22 24 23 22
12 11 11 10 9 8 7 6 5 4 4 4 4 5 4 2 1 1 3 4 6 8 9 10 9 9 10 9 7 6 8 7 6 5 4 5 5 4 3 3 4 3 2 3 6 8 9 12 12 10 8 8 14 11 6 10 4 2 4 6 5 9 8 8 13 12 14 15 11 12 18 17 14 15 13 13 11 8 10 12 17 21 24 24 24 25 24 23
12 11 11 10 10 9 7 6 5 4 3 3 4 4 3 2 1 1 2 4 6 7 9 10 10 10 10 9 7 7 7 4 3 4 3 3 3 2 2 3 3 2 5 7 9 9 10 12 12 9 4 6 11 6 8 13 4 8 6 13 12 13 10 11 17 16 16 15 12 12 12 14 17 16 15 16 10 5 8 13 19 23 25 24 24 25 25 23
11 12 10 10 10 8 7 6 5 4 3 2 4 4 4 2 1 1 2 4 6 7 9 11 12 11 10 9 7 8 7 2 4 3 2 2 1 1 1 1 2 6 9 11 10 10 10 10 10 9 4 5 6 5 8 4 17 11 4 13 13 14 13 14 17 15 16 15 11 11 13 20 21 17 20 23 14 8 12 16 19 19 21 22 21 23 24 24
11 11 10 10 9 8 7 6 5 4 2 2 4 4 4 2 1 1 2 4 6 7 9 12 13 11 11 9 7 9 9 6 6 3 4 4 2 1 1 1 5 9 12 13 13 14 12 11 11 10 4 3 4 3 4 17 27 14 3 8 11 16 16 15 16 15 18 17 15 18 18 19 20 13 17 22 17 15 15 17 19 17 19 19 18 20 22 23
10 10 10 9 9 8 6 6 5 4 2 2 4 5 4 3 2 2 3 4 6 8 10 12 13 12 11 9 9 11 9 4 3 3 4 6 4 1 1 4 8 11 13 14 17 17 12 9 10 8 3 2 4 8 16 20 16 11 6 7 11 15 17 19 19 20 21 19 22 26 20 19 22 16 13 16 19 20 19 19 18 19 21 20 18 19 19 20
10 10 10 9 8 7 6 5 5 4 3 1 3 5 5 3 3 3 3 5 7 9 11 12 12 12 11 10 11 10 4 1 2 2 5 8 6 3 1 7 10 12 13 15 17 14 8 5 7 7 0 5 9 10 16 14 4 8 10 10 12 12 16 18 18 20 19 18 25 23 18 22 22 14 10 11 19 21 22 23 21 23 24 22 20 19 19 19
11 9 9 9 7 7 6 5 4 4 3 1 3 5 5 4 4 4 5 6 7 9 12 12 13 13 12 12 10 5 1 2 5 3 5 9 7 2 1 5 9 12 14 15 15 11 8 5 11 11 5 9 12 9 15 15 9 15 18 14 14 12 12 15 15 18 17 16 23 19 11 14 10 6 4 9 20 23 23 24 22 25 25 24 23 21 19 18
13 10 9 8 7 6 5 5 4 3 3 1 2 5 5 4 4 5 5 7 8 10 11 12 13 13 14 16 10 1 3 4 5 5 3 7 5 3 1 4 7 10 11 12 12 11 9 5 11 10 4 4 8 10 15 20 20 23 22 13 10 10 9 12 13 14 13 10 19 20 9 5 3 4 9 15 20 21 22 23 21 23 25 24 22 20 20 19
14 12 9 8 7 5 5 5 4 3 3 1 2 4 5 5 5 6 6 7 8 10 11 12 12 13 15 15 9 2 3 6 3 4 2 4 3 6 4 5 6 5 5 9 9 7 4 3 8 9 6 4 4 7 10 20 23 22 19 10 5 6 5 5 6 8 8 5 16 20 8 4 4 3 15 19 19 19 20 22 21 22 23 22 21 21 21 20
14 13 10 8 7 6 5 5 4 4 3 1 2 3 4 5 6 7 7 8 9 9 10 11 12 13 14 12 7 3 1 5 4 2 0 2 2 4 4 4 5 2 2 6 7 2 2 2 8 9 9 5 4 5 7 10 13 13 10 7 3 4 2 2 3 8 8 4 11 10 3 3 5 3 15 18 19 20 20 21 21 22 22 21 21 22 21 20
15 14 12 9 7 7 6 5 5 4 3 2 3 3 4 5 6 7 8 8 9 9 9 10 11 12 12 10 5 0 2 4 6 4 2 5 5 2 2 3 4 3 2 4 6 5 4 6 10 9 9 4 7 7 4 5 5 4 4 3 2 3 2 6 3 7 5 0 5 5 2 3 6 7 13 16 18 19 20 20 20 20 20 20 20 22 22 20
16 15 13 10 8 7 7 6 6 5 4 4 4 4 5 6 6 6 7 8 8 9 9 10 10 11 11 10 4 3 5 8 10 6 4 7 9 8 8 8 8 8 5 5 7 8 7 7 9 9 8 2 9 7 3 5 4 3 3 2 3 2 2 6 3 4 4 2 2 5 3 4 5 10 15 16 16 15 18 19 17 17 16 16 18 20 20 19
16 16 15 12 10 8 7 7 6 7 6 6 6 6 6 6 5 6 7 8 8 9 10 10 10 9 8 6 2 4 9 9 8 8 8 10 13 12 10 10 9 12 10 8 7 7 7 7 7 7 4 1 5 5 4 4 4 4 3 2 2 2 1 3 4 2 6 4 0 3 4 3 4 12 17 16 16 15 16 16 15 16 14 14 16 18 18 18
16 16 16 15 11 9 8 7 6 7 7 7 7 6 6 6 5 5 6 7 8 10 11 11 10 9 6 4 2 6 10 7 4 8 8 8 9 9 7 7 6 9 10 12 10 7 7 6 3 3 0 3 2 5 5 3 4 4 2 1 3 3 2 1 2 3 6 6 2 3 4 4 5 12 19 17 16 15 15 16 16 16 16 15 17 18 18 19
16 16 16 16 13 10 9 8 6 5 7 8 7 5 5 6 6 5 5 7 9 10 10 9 7 5 5 6 5 5 7 4 3 6 6 7 7 4 6 6 5 6 10 11 10 8 5 3 2 2 2 3 2 5 4 2 4 3 2 2 3 2 3 3 3 4 7 5 4 4 3 6 4 9 16 18 17 16 16 17 17 17 18 17 18 18 18 19
18 17 16 16 14 11 8 7 6 4 6 7 6 5 4 6 5 3 3 6 8 6 5 5 6 2 4 8 6 4 5 5 2 3 4 5 5 5 5 6 8 9 7 5 5 7 4 2 3 2 0 2 3 5 6 6 7 7 6 4 3 3 2 4 4 6 9 5 4 6 4 5 6 8 12 17 18 17 16 16 17 16 16 16 16 18 20 20
19 18 16 14 13 10 8 6 5 3 5 5 4 5 6 9 5 2 9 11 8 7 9 11 11 11 13 14 8 5 6 6 5 5 5 5 5 6 6 6 9 7 3 3 3 5 4 3 2 3 5 7 8 8 7 7 7 6 4 4 5 4 2 4 5 7 10 5 4 7 5 6 10 9 11 17 16 15 15 14 16 17 17 18 17 19 21 21
20 18 16 13 12 9 6 5 4 2 3 1 5 7 7 8 5 5 13 12 10 10 14 18 18 18 21 16 6 7 6 5 8 8 7 9 8 6 4 4 4 3 4 7 5 2 5 3 4 7 8 8 8 6 6 7 5 4 5 5 3 3 3 5 7 9 10 5 5 6 5 6 11 9 11 16 13 13 18 18 18 20 22 23 21 21 21 20
21 18 15 11 10 7 4 4 2 3 3 2 6 7 6 7 4 7 10 9 11 11 12 17 17 19 22 14 6 6 6 4 8 9 6 9 8 5 3 1 2 4 5 5 3 3 4 1 7 8 5 2 4 3 6 7 4 4 4 5 3 3 2 2 4 8 8 5 4 6 7 7 8 9 11 17 15 16 25 25 24 26 26 27 26 24 22 20
20 17 12 9 8 6 3 2 3 4 1 3 5 4 4 5 5 10 9 6 12 13 11 14 14 15 14 7 4 6 8 4 7 9 6 5 4 4 4 3 3 5 3 4 4 3 3 4 8 6 1 3 5 5 5 4 3 4 3 5 3 4 2 1 4 7 9 5 2 7 6 4 3 6 8 16 17 16 23 27 25 27 27 27 28 26 24 24
18 14 10 8 7 4 2 2 4 1 3 4 3 2 2 4 6 10 6 3 7 10 10 11 10 8 5 3 2 6 7 4 3 5 6 5 4 1 2 4 3 3 1 4 6 6 3 7 5 1 4 3 3 5 6 5 3 1 1 5 4 5 5 4 2 5 5 2 1 7 2 4 2 6 6 10 12 12 18 22 22 25 25 24 24 24 24 25
14 11 8 8 5 2 1 4 2 4 5 2 3 2 3 4 7 8 4 1 3 6 7 6 3 2 2 1 3 4 3 3 4 7 5 4 3 3 4 4 2 4 4 4 7 6 2 4 2 6 7 6 5 5 4 5 4 2 2 3 4 6 6 4 3 4 2 4 2 6 4 5 2 4 7 6 6 8 13 16 20 25 24 21 22 22 22 24
12 9 8 7 3 1 2 3 3 7 3 3 4 4 3 4 6 5 2 3 2 4 5 2 3 2 2 0 3 1 5 3 4 4 1 1 4 4 4 5 3 3 5 2 5 2 0 3 7 7 8 9 7 5 2 4 6 2 3 4 1 4 3 5 6 4 2 2 4 3 5 3 5 0 7 9 8 7 8 11 18 23 23 22 23 22 21 23
10 8 7 5 2 1 1 2 5 6 5 3 5 4 3 4 3 2 1 4 3 4 4 1 1 2 3 1 2 0 2 3 2 2 2 4 5 5 3 4 2 3 5 2 3 1 1 4 8 7 7 7 5 4 2 4 7 1 6 2 4 5 4 3 8 4 3 2 3 4 5 2 3 3 5 9 9 5 6 9 13 19 22 24 24 23 22 24
9 8 6 3 2 2 2 1 4 5 3 4 5 6 7 4 2 1 3 4 2 4 3 2 2 3 4 2 4 5 2 3 1 1 2 3 2 2 2 3 1 5 6 4 3 3 1 2 4 6 6 4 1 4 6 3 5 5 6 1 3 3 2 1 5 4 2 3 4 5 3 4 3 5 2 7 7 5 10 12 11 16 21 24 25 24 22 23
8 8 5 3 3 3 3 1 3 3 3 5 7 7 6 4 3 1 5 3 2 2 1 3 3 4 3 1 5 6 2 3 2 3 3 1 2 1 1 3 1 5 7 5 5 4 1 2 6 7 5 2 2 7 6 1 2 4 2 3 4 3 2 1 3 3 3 5 2 6 1 4 3 4 3 5 4 7 10 9 10 15 21 24 25 25 23 22
6 8 5 5 6 5 4 1 1 2 4 6 5 3 1 2 1 4 3 1 2 2 2 3 3 2 1 3 3 3 1 3 3 4 3 1 4 3 2 3 2 3 5 4 3 3 2 3 5 4 4 4 4 4 4 2 2 1 5 4 4 5 4 3 3 3 4 3 5 7 3 5 1 4 4 4 4 8 8 5 7 13 20 24 26 25 24 24
6 7 6 6 7 6 4 3 4 3 4 4 2 2 2 1 3 5 1 3 1 3 4 3 3 2 1 1 1 2 1 2 2 5 1 2 2 4 4 2 2 4 5 6 4 4 3 2 1 1 2 3 2 3 6 6 4 5 4 3 3 4 5 5 5 5 5 2 6 5 2 6 2 4 5 5 5 8 10 8 9 12 18 24 26 25 24 24
6 6 6 6 7 7 5 4 5 3 3 3 2 0 2 3 3 2 2 2 2 2 1 2 4 3 1 2 1 1 1 2 1 3 2 0 0 2 0 2 2 4 4 3 3 5 3 1 2 1 2 4 5 4 6 7 7 6 4 4 4 3 4 4 4 3 2 4 6 4 1 2 3 5 6 4 2 7 12 14 17 18 21 25 25 25 24 24
6 5 5 6 7 9 6 2 4 4 1 3 3 2 4 5 1 3 1 1 2 3 0 2 4 3 3 2 2 2 3 2 3 1 2 2 1 2 2 2 4 5 1 1 2 4 3 4 4 2 3 2 5 4 2 3 4 4 3 4 4 2 3 2 3 2 2 5 6 4 1 1 2 5 5 5 7 14 17 20 24 24 24 25 24 23 23 24
5 3 5 7 8 10 7 2 3 4 1 3 2 3 6 4 2 2 1 2 3 1 1 2 3 5 4 2 2 0 3 2 3 1 1 1 4 3 3 4 4 5 4 2 2 2 3 4 3 1 2 1 3 4 5 4 1 0 3 5 4 3 3 1 1 0 2 5 6 5 2 2 1 5 5 9 14 17 17 17 21 23 24 24 22 22 23 24
3 5 5 6 7 10 8 2 3 4 1 3 3 5 4 1 3 2 1 2 1 1 3 2 2 4 4 3 4 1 2 2 2 4 3 3 4 3 3 5 5 4 4 3 1 1 3 3 6 4 3 2 2 2 4 6 2 2 2 5 2 3 5 2 2 4 2 1 4 4 2 2 2 4 4 4 9 9 11 14 17 19 20 20 21 22 22 23
4 6 5 6 6 7 7 6 5 4 1 3 5 4 2 3 3 2 2 1 1 1 3 4 4 4 3 4 4 3 1 0 2 4 3 3 4 4 4 3 5 4 4 3 1 1 3 4 7 6 4 2 3 3 1 4 1 2 3 2 4 3 7 4 1 1 4 3 3 2 2 4 2 3 7 7 6 6 9 12 15 17 19 20 22 23 23 23
5 5 5 6 7 9 9 7 5 2 2 4 5 1 3 3 2 2 1 1 1 2 4 2 1 2 1 2 3 5 2 2 3 3 2 2 3 5 4 3 7 6 4 5 1 1 2 3 6 6 5 8 11 7 3 3 4 3 2 2 3 2 4 4 2 4 5 3 3 2 3 4 3 2 3 5 5 4 6 9 12 16 19 22 24 25 23 23
5 4 4 6 8 8 8 6 4 2 1 4 2 3 2 2 1 2 2 2 1 3 5 2 1 1 1 1 3 5 2 2 2 2 2 2 2 3 3 3 7 9 7 10 4 1 3 1 6 4 3 9 11 7 4 7 8 6 1 1 2 3 3 3 2 1 2 2 3 4 4 3 3 2 1 3 5 7 6 7 8 12 18 23 25 26 25 23
4 4 1 6 6 6 6 4 4 3 2 3 0 2 1 2 1 4 5 3 3 4 4 1 1 1 1 1 2 4 3 2 1 2 2 1 1 2 4 3 5 9 12 12 5 1 3 3 4 5 4 5 6 6 3 6 6 5 3 4 3 3 2 1 1 2 2 1 2 3 5 3 2 3 3 5 6 7 7 7 7 14 22 24 25 26 25 24
3 3 3 8 6 3 4 4 5 4 2 1 3 2 2 2 1 4 5 4 3 3 1 1 1 2 1 1 1 3 2 3 3 2 2 1 1 0 4 3 2 4 10 12 5 1 3 3 2 6 7 4 2 3 3 1 1 4 5 4 3 2 2 2 1 1 3 3 1 1 2 4 5 4 1 3 5 7 10 10 9 16 23 24 25 26 25 24
2 2 4 11 7 1 4 6 4 3 1 1 2 2 3 2 3 3 4 3 2 2 2 1 2 1 0 2 3 2 2 4 4 3 2 2 3 1 2 4 2 0 4 8 5 2 1 2 1 3 5 3 3 4 2 3 4 4 4 2 1 1 3 4 2 3 2 3 3 3 1 5 5 3 3 2 1 3 7 10 10 15 22 24 25 26 24 24
2 1 4 10 6 3 6 5 1 1 2 2 2 1 1 2 3 3 2 0 1 2 3 3 1 1 1 1 1 2 3 2 3 3 1 2 4 1 3 8 9 6 5 3 2 1 2 3 3 2 3 3 6 5 2 4 5 5 3 3 3 3 4 5 1 3 1 1 0 3 1 5 6 3 1 4 6 5 9 11 12 16 22 26 28 27 26 24
3 2 5 8 5 5 5 2 3 1 1 4 3 2 3 2 2 4 2 1 2 2 4 3 1 2 2 0 1 3 4 3 4 3 2 2 3 3 5 10 11 8 5 2 2 3 2 3 3 3 4 5 6 5 3 4 6 5 2 1 3 2 3 5 4 3 1 1 1 2 1 5 6 4 1 4 8 10 13 11 11 13 16 21 26 28 27 26
4 6 4 6 6 7 5 2 1 1 4 3 1 4 4 3 4 4 2 1 1 1 2 2 3 2 1 1 3 3 2 4 5 6 4 3 4 6 11 13 9 5 3 2 1 1 2 1 2 3 4 6 7 7 6 6 5 2 3 3 1 1 3 2 1 3 1 2 3 4 3 6 5 5 5 4 5 5 8 10 12 13 12 15 21 24 25 25
4 6 5 5 9 9 5 3 4 2 3 1 3 2 3 4 5 6 4 2 4 5 3 1 4 7 4 2 4 5 4 4 2 4 5 3 3 5 10 12 9 5 3 4 3 2 2 2 3 4 2 1 2 3 3 4 4 3 4 5 4 4 5 2 1 3 0 3 3 5 4 6 6 6 7 6 5 4 2 4 10 14 14 15 18 21 22 22
2 2 3 3 7 9 8 6 3 2 2 1 3 2 2 2 2 5 6 4 5 7 6 4 7 9 6 4 5 6 7 5 3 2 3 3 1 3 4 7 7 5 5 4 4 3 3 2 2 5 5 4 4 5 5 2 3 4 6 7 5 4 4 3 2 1 3 3 1 4 6 4 7 8 6 6 5 5 4 1 4 10 14 16 17 18 18 19
1 1 1 2 3 6 7 7 4 3 4 3 3 0 1 2 1 3 4 3 5 7 7 7 8 6 4 4 5 4 5 5 5 4 2 2 1 3 2 2 5 6 6 4 4 3 4 3 1 4 4 5 6 7 6 2 2 4 7 8 6 3 3 4 0 4 4 2 3 6 5 4 6 8 6 6 6 4 3 3 2 4 10 14 12 7 4 6
3 3 3 1 2 4 3 6 7 6 4 4 3 1 1 3 2 1 1 4 7 7 5 6 7 5 3 3 4 2 4 5 5 3 1 2 2 4 5 3 2 6 6 3 3 4 5 1 2 2 1 4 4 5 4 3 3 5 6 7 7 4 2 1 4 5 5 3 6 7 5 5 6 6 6 6 7 6 3 4 8 13 14 13 11 12 14 13
3 6 6 4 2 5 5 5 8 8 6 4 3 1 2 4 1 1 1 3 5 5 5 4 4 4 4 4 5 3 2 3 3 3 2 3 3 2 4 3 2 3 4 3 2 3 4 1 4 2 2 5 6 6 5 6 5 6 6 7 7 6 4 3 5 5 5 5 7 5 5 7 6 6 7 7 7 4 4 11 14 16 16 14 13 13 14 15
2 4 7 8 6 4 4 6 10 9 4 4 3 0 3 4 1 1 3 4 3 2 5 5 1 2 5 5 6 4 3 5 3 2 1 2 3 2 1 1 2 5 6 3 1 3 3 2 3 3 3 5 6 6 6 5 4 5 7 8 6 5 5 3 3 2 2 3 3 2 1 5 5 6 8 7 5 6 12 15 15 14 14 13 12 12 12 13
4 4 7 7 5 3 1 6 9 6 3 2 2 2 2 3 5 5 6 6 8 5 3 6 4 3 5 7 7 3 1 2 2 3 3 2 3 3 2 3 2 4 4 1 0 2 3 1 1 5 3 5 5 5 6 6 6 6 6 7 6 4 3 3 4 2 2 2 3 5 2 4 6 6 7 5 2 6 12 14 14 15 14 13 13 12 11 10
7 5 5 4 3 4 0 4 5 5 4 3 3 3 2 4 8 10 7 6 10 12 8 7 7 5 4 5 4 2 4 5 5 8 9 9 11 11 10 11 8 3 2 1 0 1 4 2 0 3 1 5 5 3 4 5 8 6 4 4 6 5 4 4 5 3 2 3 3 1 3 6 6 5 5 5 3 4 11 13 14 15 15 14 12 11 10 9
Wind_Direction
18 19 19 18 18 21 26 28 37 50 73 89 92 103 114 113 101 81 60 38 26 15 8 1 349 344 342 344 349 338 254 247 278 309 318 321 331 13 40 83 105 96 100 118 125 123 140 130 115 149 252 257 260 263 262 266 265 245 156 109 114 132 144 172 161 154 160 164 163 136 96 106 121 99 86 75 77 82 81 82 98 115 111 116 126 136 147 146
18 18 16 17 18 20 25 28 34 47 69 88 99 112 118 109 87 60 39 22 18 10 6 0 352 345 339 344 348 323 277 278 287 305 331 0 53 70 86 117 111 100 114 130 198 285 294 294 304 299 281 263 246 249 269 281 271 215 129 84 139 157 120 111 130 147 158 155 144 123 101 98 111 111 99 88 85 90 86 84 101 117 124 131 135 141 148 146
18 17 15 15 16 18 22 27 33 45 63 86 104 117 119 105 70 40 23 12 12 7 5 0 352 347 341 342 341 323 305 302 304 322 356 64 82 84 108 142 148 133 124 69 339 321 325 316 314 316 298 270 245 247 262 271 275 240 127 68 78 123 109 124 134 149 148 141 140 119 95 80 92 111 103 102 100 97 100 102 111 127 136 135 135 141 145 145
17 16 15 13 14 17 20 25 33 43 59 84 108 122 126 109 63 22 8 9 8 4 3 359 354 357 351 348 350 332 322 319 322 355 37 82 84 85 113 152 165 130 58 357 343 334 330 321 323 324 305 262 249 244 242 251 261 12 106 102 137 127 112 138 136 132 132 132 132 118 99 81 90 111 111 105 98 83 88 115 138 142 141 140 140 142 144 147
16 14 14 12 14 17 20 26 31 42 54 87 122 134 138 136 95 356 8 8 359 358 358 355 359 6 359 355 357 339 343 350 339 6 62 95 90 92 111 145 136 43 357 349 348 343 334 322 324 327 289 243 250 225 245 246 141 57 81 114 139 138 124 152 143 135 135 126 113 99 93 92 86 80 84 88 83 83 92 117 137 139 139 142 143 143 147 150
15 13 13 12 14 18 23 28 29 41 53 99 140 152 150 164 196 308 355 355 350 350 348 354 4 9 2 355 351 347 360 347 315 342 137 141 125 116 138 164 22 352 345 348 348 339 332 330 322 313 276 251 251 225 270 216 115 86 75 107 129 136 129 152 144 140 134 113 100 92 90 97 88 68 72 77 75 106 123 126 130 136 143 145 145 146 151 151
14 13 11 9 14 18 25 29 29 39 48 111 154 166 162 183 213 268 329 343 344 345 343 353 3 5 358 349 342 341 337 299 292 287 168 159 172 128 153 328 345 335 338 339 337 333 325 325 308 291 277 283 282 257 63 94 106 103 104 104 113 117 119 139 132 126 121 104 101 102 95 90 90 88 83 86 98 116 127 129 128 141 150 149 150 150 154 150
11 12 12 8 11 15 24 29 27 33 37 122 167 177 175 196 227 267 312 334 339 344 344 353 360 360 354 347 342 336 329 308 276 250 181 160 173 125 89 354 349 333 337 336 339 338 320 310 298 295 275 230 62 84 97 93 91 94 121 121 108 110 118 126 118 112 108 102 102 97 89 90 100 108 99 109 123 122 128 133 136 148 152 151 153 155 154 147
10 10 11 7 5 8 17 23 23 27 28 116 178 185 186 207 241 274 303 325 334 341 344 351 355 352 345 341 344 337 321 58 101 201 174 158 162 137 11 1 2 347 348 347 351 348 316 294 316 338 60 125 73 87 106 95 75 108 124 125 112 113 120 119 113 111 107 103 104 98 98 109 114 105 87 123 129 123 131 138 147 153 152 152 153 154 149 144
10 7 8 5 359 358 4 9 12 17 22 68 185 194 198 215 251 282 303 320 330 337 342 349 349 345 338 336 343 347 189 124 97 109 155 152 151 154 18 21 13 359 359 358 3 358 335 323 338 356 93 91 64 76 95 103 132 125 118 118 118 121 120 118 114 112 110 110 113 115 120 126 130 99 92 149 134 130 137 141 152 153 150 149 148 150 147 146
9 6 3 2 353 343 347 351 351 357 7 27 190 199 208 226 257 282 303 317 326 335 338 343 344 338 332 329 322 285 159 156 109 68 129 152 147 167 119 40 25 7 3 359 2 2 359 349 344 5 67 58 71 78 90 120 131 122 117 109 108 112 111 116 117 115 109 111 122 118 102 95 68 79 147 160 142 140 142 142 153 153 149 147 147 151 148 146
7 4 358 356 350 332 325 332 331 330 337 326 209 209 219 237 265 284 299 312 320 328 331 338 341 334 331 326 310 286 150 179 163 41 92 164 150 144 112 55 58 44 2 344 345 358 5 338 354 15 11 349 100 85 106 132 128 124 119 107 104 92 93 112 112 118 103 116 131 113 71 14 352 101 146 153 148 149 144 145 155 152 150 151 152 155 152 149
5 2 356 347 344 328 305 307 313 313 314 285 243 232 231 243 266 284 296 305 313 320 326 334 335 331 327 321 318 328 202 206 222 324 51 206 209 122 98 83 99 111 319 322 320 313 208 321 1 7 2 11 94 101 128 128 121 129 110 104 127 45 13 326 78 107 90 119 152 121 48 303 299 179 151 152 153 152 147 150 156 154 155 156 158 160 158 156
6 1 354 343 336 329 306 287 288 290 286 269 254 245 244 250 261 281 292 298 307 313 321 327 331 332 322 316 330 73 184 209 224 263 266 234 248 255 270 229 203 230 270 291 291 283 275 326 338 341 357 52 124 115 97 39 61 99 55 70 90 64 282 310 42 112 88 214 178 117 104 224 268 230 179 167 163 158 151 154 158 159 160 160 161 162 163 159
7 1 354 343 330 325 314 289 273 268 265 253 246 248 252 252 253 270 283 288 298 307 314 318 328 338 324 313 319 143 160 193 214 239 261 257 257 258 282 282 243 231 248 277 298 300 290 310 313 321 349 88 132 102 31 4 18 38 49 330 348 90 237 311 325 133 119 208 180 95 115 221 249 231 200 180 184 176 157 158 164 166 168 168 170 167 165 160
1 0 355 347 332 320 318 306 275 260 258 251 248 248 250 252 247 251 270 281 291 301 311 316 323 332 324 311 301 178 182 193 218 237 240 252 255 256 289 305 257 235 241 260 298 310 279 282 295 300 325 109 117 85 43 22 355 2 96 222 292 127 168 322 299 237 134 140 264 100 133 211 242 225 206 187 195 190 159 158 169 172 175 173 174 172 167 163
352 353 352 349 339 319 314 319 298 264 255 258 256 251 253 256 250 246 258 274 287 295 303 303 304 311 295 257 232 211 198 189 234 240 233 245 249 254 285 298 255 236 245 257 272 279 266 269 281 282 15 91 78 84 64 14 312 315 61 164 245 166 141 155 284 260 145 138 220 131 144 210 216 202 201 195 194 189 162 161 175 178 180 177 173 174 174 172
347 346 344 344 341 324 310 322 319 272 249 256 261 264 266 270 277 268 259 276 282 287 295 283 274 306 286 240 233 237 213 186 234 240 243 251 238 247 278 281 272 258 256 257 258 248 247 277 52 21 47 71 33 87 94 236 216 224 186 175 252 141 118 164 211 218 170 165 196 161 182 229 200 176 197 202 192 188 175 171 182 184 184 180 172 177 184 182
342 341 336 336 338 325 308 319 321 275 240 246 264 286 308 325 315 280 313 308 282 274 286 245 217 215 277 263 254 245 208 173 187 233 243 247 223 235 263 275 281 276 258 241 246 225 203 12 29 23 60 182 209 156 169 204 185 194 191 150 167 153 150 194 198 201 178 167 196 188 190 199 182 174 192 199 190 188 186 179 185 190 189 183 176 184 191 191
335 334 332 330 331 321 308 317 316 267 229 235 294 339 2 2 2 357 337 317 285 280 282 267 255 253 272 278 255 202 185 191 233 245 238 226 217 249 262 264 278 281 229 205 247 222 148 54 305 222 206 210 217 196 190 203 181 173 161 135 157 158 212 205 188 200 178 160 224 205 182 174 186 191 187 187 183 183 189 186 187 192 195 195 192 192 194 198
329 328 328 324 323 317 303 310 302 232 208 198 16 20 17 5 7 345 334 312 278 278 278 277 273 269 279 280 231 176 189 234 264 269 253 231 224 260 277 253 273 290 231 222 237 221 114 106 234 213 201 212 220 185 166 194 174 128 146 160 163 159 220 211 183 191 177 170 229 200 181 192 193 195 181 176 176 186 191 190 193 196 198 201 202 200 198 199
327 326 326 319 317 311 291 303 270 173 149 83 24 21 23 14 357 318 324 306 285 280 277 280 277 275 277 266 211 188 208 246 276 272 248 220 210 226 257 252 222 243 257 234 241 18 72 151 237 229 211 236 296 58 115 177 160 94 133 140 147 195 238 250 195 188 175 184 235 185 192 220 198 185 181 180 186 195 194 193 195 199 200 202 203 204 200 196
327 327 325 315 312 305 277 275 201 172 142 2 357 18 32 12 331 306 306 294 295 295 286 281 279 277 268 235 173 189 200 233 281 263 236 221 216 208 237 283 242 236 263 215 197 89 78 241 239 243 6 47 317 359 78 163 142 81 114 117 156 190 142 225 224 197 185 194 182 154 187 255 169 157 186 194 194 200 201 199 200 202 205 206 205 205 201 196
328 329 324 314 308 300 288 200 176 180 324 334 1 48 18 337 314 310 302 267 290 298 293 287 285 272 232 171 162 191 204 254 270 205 211 250 282 274 270 291 284 304 335 165 155 120 165 238 239 346 31 72 305 348 58 101 90 0 180 132 156 183 189 222 214 181 196 270 100 119 96 315 138 150 190 202 196 202 206 204 207 211 212 213 209 205 203 201
330 331 324 319 309 298 85 143 138 349 331 344 28 11 342 318 306 304 294 1 295 290 304 293 251 209 171 119 193 198 284 291 137 142 194 264 325 3 337 331 0 332 327 118 114 104 180 252 23 38 28 37 24 17 58 115 104 344 263 178 166 162 192 213 104 96 54 334 257 116 73 305 291 158 176 183 184 198 204 204 211 214 216 217 209 204 205 205
331 330 325 323 309 186 115 124 39 13 54 86 31 3 336 298 301 284 221 50 336 288 319 278 184 217 296 303 201 290 348 274 151 111 150 16 32 36 352 333 14 310 283 127 108 109 284 9 48 60 48 39 32 29 38 129 102 37 270 248 292 85 123 168 138 115 103 251 259 105 113 255 314 232 177 170 173 195 209 214 217 215 216 218 214 209 207 205
329 326 327 320 292 165 123 93 32 33 72 57 1 347 308 286 293 259 185 39 357 294 312 258 155 264 249 276 234 178 36 225 229 17 85 84 55 49 4 313 351 309 286 72 63 293 246 31 49 69 64 51 29 356 282 131 100 248 248 260 351 13 18 142 146 163 190 203 320 27 100 129 318 292 185 158 158 187 221 229 229 222 220 222 220 216 211 208
325 323 323 295 248 194 161 84 31 29 19 332 318 299 289 273 246 240 87 70 326 302 308 282 341 296 265 302 242 215 184 212 222 27 125 89 54 52 7 259 216 306 313 81 100 260 225 62 79 93 76 70 43 277 254 120 101 241 244 37 351 324 309 125 130 158 154 71 341 318 56 89 284 290 137 137 149 191 220 226 229 224 222 224 223 220 214 211
318 320 310 227 203 183 162 71 23 17 324 323 316 290 280 250 233 31 82 95 287 300 330 311 316 291 295 330 232 232 243 229 168 134 159 148 256 232 340 278 276 332 333 83 136 233 257 148 150 121 91 105 231 253 257 82 142 243 289 24 348 319 276 15 85 117 73 56 295 270 85 103 276 287 123 129 168 204 217 225 228 224 222 223 224 223 216 212
310 314 293 215 196 183 162 140 339 300 315 341 330 265 223 207 172 53 59 217 267 273 303 304 289 278 351 25 290 281 276 237 199 149 163 275 267 279 338 304 341 26 349 28 92 248 264 148 150 118 126 174 211 260 293 313 250 21 35 17 0 355 352 13 38 77 64 15 266 250 190 127 275 278 178 174 209 195 189 205 226 225 222 224 225 222 215 211
300 306 278 220 199 188 176 195 226 281 334 7 358 175 120 33 72 80 130 239 271 316 328 307 287 299 236 157 321 319 357 280 187 146 195 333 320 323 3 358 4 44 12 2 1 314 347 64 326 1 122 128 86 1 354 351 4 54 55 40 31 346 358 19 358 36 65 295 261 254 196 127 142 264 227 228 227 176 165 183 203 208 214 218 219 218 215 213
298 293 253 222 204 191 191 212 223 273 353 56 46 125 114 41 40 115 227 290 300 287 330 263 273 316 264 177 235 280 33 337 284 142 171 253 336 297 335 164 141 50 2 328 339 338 3 1 270 247 70 70 73 28 0 2 20 42 45 63 64 349 6 24 337 15 83 261 262 268 347 124 192 243 225 214 204 175 173 184 191 193 203 212 215 217 218 218
297 273 226 216 200 190 194 232 245 250 352 59 28 7 86 73 29 224 220 344 237 230 1 273 280 357 39 27 307 316 46 349 273 184 169 167 42 299 257 197 130 99 105 228 15 3 356 324 325 24 0 59 104 88 23 345 11 36 48 84 98 77 52 7 299 0 337 279 279 290 1 130 283 280 230 162 171 191 185 183 188 191 197 205 210 213 217 219
287 226 205 206 198 203 214 275 257 219 164 39 34 50 69 77 224 198 124 240 227 241 312 284 314 9 29 0 267 228 50 290 248 106 85 70 42 353 327 0 49 95 112 86 51 59 46 323 303 45 305 287 112 144 162 153 95 122 147 115 112 138 127 187 232 104 292 282 299 328 25 132 238 294 245 172 173 187 183 180 185 189 195 200 203 207 211 215
242 190 189 192 196 212 212 158 150 170 114 14 48 69 83 165 230 133 126 248 225 1 312 313 31 31 6 321 285 213 123 261 291 49 38 56 59 355 342 9 15 62 92 74 338 68 65 275 260 276 267 152 104 233 160 106 74 272 125 86 42 181 143 114 174 180 207 314 315 325 354 212 209 319 331 129 145 153 155 166 175 182 191 195 198 203 206 211
216 183 172 166 166 173 158 127 124 131 41 32 60 66 159 207 213 159 174 220 148 98 355 358 36 51 355 324 308 306 92 70 359 42 33 72 72 5 353 30 19 30 93 113 210 34 47 282 287 331 339 42 17 313 52 92 165 294 40 42 269 186 127 102 336 335 54 59 303 312 357 313 327 16 3 37 83 119 137 156 172 180 185 190 198 203 205 209
209 187 182 175 157 139 135 133 127 110 17 63 86 164 218 226 222 173 183 162 139 81 76 50 14 71 352 318 310 312 3 27 3 54 42 33 46 346 335 42 35 33 102 109 114 194 102 277 302 4 5 331 344 352 4 55 98 85 19 285 273 37 78 98 82 3 33 60 293 339 10 331 21 37 345 54 98 166 166 162 171 178 183 190 199 203 205 207
221 227 218 183 159 134 132 142 146 160 31 68 86 237 217 250 297 76 69 76 71 46 77 111 232 130 110 9 310 312 15 42 335 46 72 33 34 340 333 29 29 28 67 83 70 312 91 355 299 349 359 322 349 23 356 1 54 93 166 261 76 60 17 26 72 19 18 15 308 330 339 339 41 349 283 122 165 204 194 173 172 181 189 195 200 203 206 207
249 271 214 160 152 125 119 148 185 188 69 61 330 270 212 224 325 75 81 73 78 68 72 132 222 78 89 100 295 312 18 71 322 57 87 66 74 2 0 21 28 28 49 75 92 288 71 92 283 305 329 329 4 40 356 328 16 53 46 16 45 121 132 56 89 140 127 51 317 338 344 330 285 256 211 169 197 202 184 186 194 194 196 198 200 202 205 207
271 307 138 148 141 114 130 158 172 150 90 113 191 242 275 227 71 71 76 59 62 82 85 235 80 48 330 348 314 309 22 41 17 50 77 60 102 328 350 22 51 31 47 64 78 15 57 80 288 300 332 6 17 356 352 259 345 42 50 25 0 10 65 73 45 59 108 116 137 45 347 291 268 263 241 160 186 193 188 192 201 203 202 202 202 203 205 206
270 341 155 160 154 177 172 161 160 141 111 250 195 238 268 183 118 71 67 59 52 92 120 140 107 106 176 28 353 330 30 32 27 50 33 36 97 176 337 39 71 288 42 49 47 40 59 72 38 312 341 7 259 294 9 133 143 115 108 99 102 92 79 79 0 322 79 125 159 137 207 269 272 291 323 0 67 203 193 180 187 205 208 207 207 207 208 208
254 329 160 167 180 211 168 154 207 153 137 255 245 228 261 112 87 64 73 124 333 20 43 59 82 96 100 98 336 27 67 38 18 61 74 66 93 102 4 58 74 82 79 54 348 339 119 97 65 320 280 253 266 291 35 106 107 97 97 119 120 98 96 110 180 272 339 20 97 119 157 263 265 261 325 47 75 131 165 163 173 196 208 212 213 212 211 211
258 262 159 161 199 213 163 123 327 343 244 257 255 62 60 64 59 58 59 16 329 3 34 32 14 59 71 111 57 61 84 58 11 35 102 62 40 22 37 60 70 72 74 71 313 338 46 74 44 320 292 297 305 314 359 60 69 59 2 51 92 61 118 144 170 173 140 331 61 77 305 264 270 280 310 70 94 138 162 163 169 188 203 212 214 214 213 214
273 275 218 172 208 215 173 148 188 234 277 275 110 71 64 69 59 50 33 346 16 53 59 15 356 32 19 35 62 46 81 81 22 15 53 58 13 32 55 62 62 54 58 145 185 10 30 64 60 41 352 341 343 344 351 6 31 40 313 326 346 11 63 90 85 78 70 244 150 127 244 254 272 310 322 359 60 123 173 176 180 186 192 204 209 210 212 214
305 281 255 198 202 210 206 203 170 171 273 317 82 76 63 61 52 53 50 50 65 73 86 0 27 44 19 5 56 30 32 80 62 6 30 44 7 24 52 63 67 72 108 147 136 84 115 136 104 102 106 293 305 312 314 321 333 341 327 324 328 355 17 11 34 76 69 246 145 142 217 261 286 311 320 333 4 348 283 185 185 193 194 196 196 199 205 210
347 277 247 184 195 214 233 241 183 146 231 134 74 42 74 88 68 61 55 46 53 63 67 38 34 45 25 21 56 31 17 48 87 69 37 41 3 350 41 66 61 69 114 113 67 63 91 71 95 130 150 182 206 238 250 274 323 321 314 314 320 351 30 72 75 89 194 191 191 213 209 246 286 291 302 312 313 305 309 305 210 202 198 197 194 200 211 213
267 271 225 155 213 235 246 255 232 194 207 150 110 226 130 116 80 44 36 54 66 64 62 40 34 47 32 39 65 31 3 26 51 68 59 27 319 320 2 88 71 82 109 91 41 78 85 31 27 136 164 205 206 231 259 296 304 297 308 303 291 312 43 73 343 241 182 125 283 253 200 194 263 270 273 282 275 266 295 329 358 143 174 188 185 172 161 193
225 310 317 354 235 213 224 255 227 186 165 130 113 150 124 90 84 81 53 74 61 54 66 36 22 43 58 78 102 51 4 24 25 14 357 340 333 352 359 348 68 101 110 74 28 99 104 133 232 136 296 272 252 263 297 353 327 308 315 296 281 296 2 36 253 227 165 164 251 247 211 211 248 260 258 251 240 254 328 61 97 108 129 148 131 95 83 84
256 302 315 344 297 208 199 218 181 138 110 106 85 56 129 107 102 213 161 88 49 32 81 85 355 19 53 73 102 85 44 61 9 318 319 359 352 9 4 333 335 48 61 48 17 73 94 201 228 145 4 317 307 309 347 15 346 326 322 294 280 292 301 270 249 226 181 207 244 246 241 251 249 233 226 218 214 218 102 111 122 118 116 114 98 82 79 79
302 306 318 337 324 256 209 163 141 120 87 92 83 55 135 107 115 290 27 80 125 20 66 110 161 38 63 69 83 97 167 157 156 244 267 23 355 346 354 252 282 349 10 48 15 39 76 243 238 111 47 319 303 318 354 12 342 323 311 294 291 314 328 303 252 242 202 254 297 35 316 280 267 235 229 224 198 142 127 129 130 122 115 109 93 77 72 69
263 290 306 312 309 296 173 131 125 112 86 99 125 173 147 127 136 111 38 52 117 124 112 134 131 54 51 62 75 91 231 161 154 282 300 314 283 270 261 245 272 337 345 349 351 63 93 261 297 75 49 290 286 332 344 350 356 344 314 311 322 326 321 280 257 229 171 198 26 46 33 275 275 284 276 259 227 128 136 135 123 115 110 101 88 74 65 57
263 265 266 249 267 306 338 107 96 110 151 182 169 149 158 167 139 114 75 49 93 106 114 121 107 75 58 59 64 50 356 351 330 316 315 306 298 294 287 284 282 264 214 163 84 147 135 137 163 100 86 272 278 333 358 15 11 340 287 317 331 307 290 299 304 294 212 162 109 109 233 239 258 300 310 297 314 123 137 130 116 109 98 85 77 69 63 53
Height
1522 1520 1520 1519 1518 1517 1516 1516 1515 1515 1514 1514 1514 1514 1514 1514 1514 1514 1514 1513 1513 1512 1512 1511 1510 1510 1509 1509 1509 1509 1508 1508 1508 1507 1506 1505 1504 1503 1503 1504 1504 1504 1504 1504 1505 1505 1506 1506 1506 1507 1507 1506 1506 1505 1504 1503 1503 1504 1507 1511 1518 1521 1520 1517 1517 1519 1518 1519 1520 1520 1522 1523 1525 1526 1525 1526 1526 1526 1527 1528 1530 1530 1530 1531 1532 1534 1537 1538
1522 1521 1520 1519 1518 1517 1516 1516 1515 1515 1515 1514 1514 1515 1515 1515 1514 1514 1514 1513 1513 1513 1512 1512 1511 1510 1510 1509 1509 1509 1508 1508 1507 1506 1506 1505 1504 1503 1503 1504 1504 1504 1504 1505 1505 1505 1506 1506 1506 1506 1506 1506 1505 1505 1504 1502 1502 1503 1506 1511 1517 1518 1517 1515 1514 1515 1515 1518 1519 1519 1521 1522 1523 1525 1525 1527 1530 1529 1528 1532 1532 1530 1528 1529 1530 1531 1534 1537
1522 1521 1520 1519 1518 1517 1516 1516 1515 1515 1515 1515 1515 1515 1515 1515 1514 1514 1514 1514 1514 1513 1513 1512 1512 1511 1510 1510 1509 1509 1509 1508 1507 1506 1505 1504 1504 1503 1504 1504 1504 1504 1504 1505 1505 1505 1506 1505 1506 1506 1506 1506 1505 1505 1504 1502 1501 1501 1505 1515 1518 1515 1515 1515 1514 1514 1514 1516 1517 1519 1519 1520 1523 1524 1526 1528 1531 1530 1529 1533 1533 1530 1529 1529 1530 1532 1534 1537
1522 1521 1520 1519 1518 1517 1516 1516 1515 1515 1515 1515 1515 1515 1515 1515 1515 1514 1514 1514 1514 1514 1513 1513 1512 1512 1511 1510 1509 1509 1508 1508 1506 1506 1505 1504 1504 1504 1504 1504 1504 1505 1504 1505 1505 1505 1505 1504 1505 1505 1506 1506 1504 1505 1503 1501 1503 1502 1505 1514 1516 1513 1514 1516 1515 1515 1516 1518 1518 1518 1517 1519 1523 1524 1525 1527 1530 1532 1532 1534 1532 1529 1529 1529 1530 1532 1536 1538
1522 1521 1520 1519 1518 1517 1517 1516 1515 1515 1515 1515 1515 1515 1515 1515 1515 1515 1515 1515 1515 1514 1514 1513 1512 1512 1511 1510 1510 1509 1509 1509 1508 1506 1505 1504 1505 1505 1505 1505 1505 1505 1504 1505 1505 1505 1505 1504 1504 1504 1506 1505 1504 1504 1501 1500 1503 1506 1509 1511 1512 1511 1512 1515 1515 1516 1518 1518 1520 1519 1518 1520 1522 1525 1527 1527 1530 1534 1535 1535 1534 1531 1531 1531 1532 1533 1536 1538
1523 1521 1520 1519 1518 1517 1517 1516 1515 1515 1515 1515 1515 1515 1515 1515 1515 1515 1515 1515 1515 1515 1514 1513 1512 1512 1511 1510 1510 1509 1509 1510 1508 1506 1506 1505 1505 1505 1505 1505 1505 1505 1504 1504 1505 1505 1505 1505 1505 1504 1505 1503 1503 1502 1499 1501 1503 1508 1513 1511 1512 1512 1511 1515 1515 1517 1518 1518 1520 1520 1521 1522 1523 1528 1530 1529 1533 1536 1537 1536 1535 1535 1535 1534 1535 1535 1535 1535
1523 1521 1520 1519 1518 1518 1517 1516 1516 1515 1515 1515 1515 1515 1515 1515 1515 1515 1515 1515 1515 1515 1514 1513 1512 1511 1511 1510 1509 1509 1508 1508 1506 1506 1506 1504 1505 1505 1505 1506 1505 1505 1504 1505 1505 1504 1505 1504 1504 1504 1504 1504 1503 1501 1501 1503 1503 1508 1514 1513 1513 1513 1512 1516 1517 1518 1519 1518 1520 1519 1522 1523 1524 1530 1531 1530 1534 1536 1537 1537 1537 1539 1538 1536 1536 1535 1535 1535
1523 1522 1520 1519 1519 1518 1517 1517 1516 1515 1515 1515 1515 1515 1516 1516 1515 1515 1515 1516 1515 1515 1514 1513 1512 1511 1511 1510 1509 1509 1508 1507 1506 1505 1505 1505 1505 1505 1505 1505 1505 1505 1504 1504 1503 1503 1504 1503 1504 1503 1504 1506 1504 1502 1504 1506 1507 1510 1514 1515 1514 1514 1515 1516 1518 1519 1520 1520 1520 1519 1522 1525 1525 1528 1530 1532 1533 1533 1535 1536 1538 1541 1539 1537 1536 1535 1536 1536
1522 1521 1520 1519 1519 1518 1517 1517 1516 1516 1515 1515 1515 1515 1516 1516 1515 1515 1515 1515 1515 1514 1514 1513 1512 1511 1510 1510 1509 1509 1507 1506 1505 1505 1505 1505 1505 1505 1505 1505 1505 1504 1503 1503 1503 1502 1503 1502 1503 1503 1504 1505 1503 1503 1503 1506 1512 1512 1513 1515 1515 1516 1516 1517 1519 1519 1520 1521 1520 1520 1524 1526 1525 1526 1530 1535 1535 1534 1535 1537 1539 1540 1538 1538 1537 1536 1536 1536
1522 1521 1520 1519 1519 1518 1517 1517 1516 1516 1516 1515 1515 1516 1516 1516 1515 1515 1515 1515 1514 1514 1513 1513 1512 1511 1510 1510 1510 1509 1507 1506 1506 1505 1506 1505 1506 1505 1505 1505 1504 1503 1502 1502 1503 1503 1503 1502 1502 1503 1503 1503 1502 1503 1501 1504 1512 1512 1512 1515 1515 1517 1517 1518 1519 1519 1520 1522 1521 1521 1525 1526 1524 1526 1532 1536 1536 1536 1537 1537 1538 1538 1537 1537 1536 1536 1536 1536
1522 1521 1520 1519 1519 1518 1518 1517 1517 1516 1516 1516 1516 1516 1516 1516 1515 1515 1515 1514 1514 1514 1513 1512 1512 1511 1510 1509 1509 1509 1507 1506 1506 1506 1506 1506 1506 1506 1505 1505 1504 1504 1503 1503 1503 1503 1503 1502 1502 1502 1502 1502 1503 1503 1503 1504 1509 1510 1512 1516 1517 1518 1519 1520 1520 1519 1519 1522 1522 1521 1523 1526 1525 1527 1531 1533 1534 1536 1535 1536 1537 1536 1536 1537 1537 1537 1536 1537
1522 1521 1520 1520 1519 1518 1518 1517 1517 1517 1516 1516 1516 1515 1515 1515 1515 1514 1514 1514 1514 1513 1513 1512 1512 1511 1510 1508 1508 1507 1506 1506 1507 1506 1506 1506 1506 1506 1505 1505 1505 1504 1504 1504 1503 1503 1502 1502 1501 1501 1501 1502 1504 1506 1507 1508 1508 1509 1511 1516 1520 1519 1520 1521 1520 1519 1519 1522 1523 1520 1526 1530 1528 1529 1531 1531 1534 1534 1534 1535 1535 1535 1536 1536 1536 1537 1537 1538
1523 1522 1521 1520 1519 1518 1518 1517 1517 1517 1516 1516 1515 1515 1515 1515 1514 1514 1514 1513 1513 1513 1513 1512 1511 1511 1509 1508 1506 1507 1507 1506 1506 1506 1506 1506 1505 1505 1505 1505 1505 1505 1505 1505 1503 1502 1502 1501 1501 1501 1501 1501 1504 1506 1507 1508 1508 1510 1510 1514 1521 1522 1523 1521 1519 1520 1519 1522 1522 1521 1533 1538 1531 1531 1532 1532 1533 1533 1533 1534 1534 1534 1535 1536 1537 1537 1538 1539
1523 1522 1521 1520 1519 1518 1518 1517 1517 1516 1516 1515 1515 1515 1514 1514 1514 1514 1513 1513 1513 1513 1513 1512 1511 1510 1509 1507 1506 1506 1506 1506 1507 1506 1505 1505 1505 1505 1505 1505 1505 1504 1504 1504 1503 1502 1502 1502 1502 1502 1503 1504 1503 1504 1507 1508 1509 1511 1512 1516 1522 1525 1525 1521 1519 1521 1521 1523 1521 1523 1537 1541 1533 1531 1532 1532 1533 1532 1533 1534 1534 1535 1535 1536 1537 1538 1539 1539
1524 1523 1521 1520 1519 1518 1517 1517 1516 1516 1515 1515 1514 1514 1513 1513 1513 1513 1513 1512 1512 1512 1512 1512 1511 1511 1509 1507 1506 1506 1506 1507 1506 1505 1505 1504 1503 1504 1504 1504 1504 1504 1504 1504 1503 1503 1503 1503 1502 1503 1505 1505 1503 1506 1510 1512 1512 1514 1518 1524 1526 1526 1526 1522 1519 1520 1521 1523 1521 1524 1537 1540 1533 1531 1531 1531 1532 1532 1533 1534 1535 1535 1535 1536 1537 1539 1540 1540
1525 1523 1521 1520 1519 1518 1517 1516 1516 1515 1515 1514 1513 1513 1513 1513 1513 1513 1513 1512 1512 1512 1512 1512 1511 1511 1510 1507 1506 1506 1506 1506 1505 1504 1505 1504 1503 1503 1503 1503 1503 1503 1504 1504 1503 1504 1504 1503 1503 1504 1505 1506 1506 1508 1513 1517 1518 1518 1521 1526 1527 1527 1528 1526 1522 1520 1520 1522 1521 1524 1535 1538 1532 1529 1530 1531 1531 1531 1532 1534 1534 1535 1535 1535 1537 1538 1540 1540
1525 1523 1521 1520 1519 1518 1516 1516 1515 1514 1514 1513 1512 1512 1512 1512 1512 1513 1512 1512 1512 1511 1511 1511 1511 1511 1509 1506 1506 1505 1505 1505 1504 1503 1504 1503 1503 1503 1504 1504 1503 1504 1504 1504 1504 1504 1504 1504 1504 1505 1505 1507 1509 1509 1518 1526 1524 1521 1523 1525 1526 1527 1529 1529 1525 1521 1520 1521 1522 1524 1530 1532 1527 1526 1528 1530 1530 1530 1531 1532 1532 1533 1533 1533 1535 1537 1538 1539
1524 1523 1521 1520 1518 1517 1516 1515 1514 1514 1513 1512 1511 1511 1512 1512 1511 1512 1512 1512 1511 1511 1511 1510 1511 1513 1510 1506 1505 1504 1504 1505 1504 1503 1503 1503 1503 1504 1504 1504 1503 1504 1504 1503 1503 1503 1504 1504 1505 1507 1507 1509 1510 1511 1520 1526 1520 1518 1522 1525 1525 1526 1528 1529 1526 1522 1519 1521 1522 1525 1527 1526 1525 1526 1528 1529 1530 1530 1529 1530 1529 1529 1530 1532 1534 1535 1536 1537
1523 1522 1521 1519 1518 1516 1515 1515 1514 1513 1512 1512 1511 1511 1511 1511 1510 1510 1511 1511 1510 1510 1510 1509 1509 1512 1510 1506 1504 1504 1504 1504 1503 1503 1503 1503 1503 1504 1504 1504 1504 1504 1504 1504 1503 1502 1503 1505 1507 1510 1511 1511 1509 1509 1513 1513 1511 1512 1516 1522 1523 1524 1525 1524 1522 1518 1518 1521 1523 1525 1526 1526 1527 1527 1527 1528 1530 1529 1528 1528 1528 1528 1529 1531 1533 1534 1535 1536
1523 1521 1520 1518 1517 1516 1515 1514 1513 1512 1512 1512 1512 1511 1511 1510 1510 1510 1509 1509 1509 1509 1508 1507 1507 1507 1506 1505 1504 1504 1504 1503 1503 1503 1502 1503 1503 1503 1503 1504 1504 1504 1504 1504 1503 1502 1504 1509 1511 1510 1509 1507 1505 1506 1506 1505 1507 1510 1514 1521 1521 1521 1521 1519 1518 1516 1515 1521 1523 1522 1525 1527 1527 1525 1525 1528 1529 1529 1527 1527 1528 1529 1529 1529 1530 1532 1533 1535
1522 1520 1519 1517 1516 1515 1514 1514 1513 1512 1512 1512 1513 1512 1511 1511 1512 1512 1510 1507 1506 1507 1507 1505 1505 1505 1503 1504 1504 1503 1503 1503 1503 1503 1503 1502 1503 1503 1503 1503 1504 1505 1504 1502 1503 1503 1506 1512 1511 1506 1504 1502 1501 1503 1504 1505 1507 1510 1515 1520 1520 1519 1518 1515 1515 1514 1514 1519 1521 1521 1524 1526 1525 1524 1525 1527 1528 1527 1525 1526 1527 1527 1527 1527 1527 1529 1532 1535
1521 1519 1517 1516 1515 1514 1514 1513 1513 1513 1513 1513 1513 1513 1513 1513 1513 1513 1512 1509 1505 1505 1505 1503 1504 1504 1502 1503 1504 1503 1504 1503 1502 1503 1502 1502 1503 1503 1503 1503 1504 1504 1502 1501 1505 1507 1509 1511 1506 1501 1499 1499 1499 1500 1503 1504 1506 1510 1515 1519 1520 1517 1516 1515 1514 1513 1514 1518 1519 1520 1523 1523 1522 1524 1525 1525 1524 1523 1523 1523 1523 1524 1525 1526 1527 1528 1531 1534
1520 1517 1516 1515 1514 1514 1513 1513 1513 1512 1513 1513 1513 1513 1513 1513 1513 1513 1513 1512 1507 1503 1503 1502 1502 1501 1501 1502 1503 1502 1502 1503 1502 1502 1502 1502 1501 1502 1502 1502 1503 1503 1502 1502 1505 1509 1512 1508 1502 1498 1497 1498 1500 1500 1503 1504 1506 1510 1513 1517 1518 1515 1517 1520 1516 1513 1514 1515 1516 1519 1522 1521 1522 1525 1526 1525 1524 1523 1523 1523 1523 1523 1523 1524 1525 1528 1530 1532
1518 1516 1515 1514 1513 1513 1513 1513 1513 1513 1513 1513 1513 1513 1513 1513 1513 1513 1512 1512 1509 1503 1501 1501 1501 1500 1501 1501 1501 1502 1502 1502 1501 1501 1501 1501 1500 1501 1501 1501 1501 1502 1502 1501 1502 1506 1508 1503 1498 1497 1498 1500 1502 1502 1504 1507 1509 1511 1509 1512 1515 1513 1514 1516 1513 1513 1514 1514 1513 1518 1525 1523 1521 1527 1528 1526 1526 1525 1523 1524 1524 1523 1523 1524 1525 1528 1530 1531
1517 1516 1515 1513 1513 1512 1513 1513 1513 1514 1513 1513 1514 1513 1513 1513 1512 1512 1511 1513 1513 1505 1501 1501 1500 1500 1500 1500 1501 1501 1502 1502 1501 1500 1501 1500 1500 1501 1500 1500 1501 1502 1502 1501 1502 1504 1504 1501 1498 1500 1501 1502 1505 1505 1506 1508 1511 1511 1508 1507 1508 1508 1509 1511 1512 1516 1521 1522 1513 1515 1530 1530 1521 1525 1528 1526 1526 1525 1524 1524 1523 1523 1523 1524 1525 1526 1528 1530
1516 1515 1514 1513 1513 1512 1513 1513 1513 1514 1512 1513 1514 1512 1513 1512 1512 1512 1511 1517 1518 1507 1502 1501 1500 1500 1500 1500 1501 1501 1504 1503 1500 1500 1500 1499 1499 1500 1501 1501 1500 1502 1501 1499 1501 1503 1502 1500 1499 1502 1504 1505 1507 1508 1507 1507 1510 1513 1508 1503 1502 1503 1506 1510 1513 1517 1523 1524 1513 1510 1526 1532 1523 1521 1525 1525 1526 1525 1524 1524 1522 1522 1523 1522 1523 1525 1527 1529
1516 1515 1513 1513 1512 1513 1513 1513 1514 1513 1512 1513 1512 1512 1513 1511 1512 1511 1513 1526 1525 1508 1503 1502 1501 1501 1500 1500 1500 1502 1507 1505 1499 1500 1499 1499 1499 1499 1502 1502 1501 1501 1498 1499 1506 1506 1502 1501 1501 1503 1504 1506 1508 1509 1507 1504 1509 1513 1505 1501 1503 1503 1506 1509 1511 1515 1517 1517 1514 1512 1518 1528 1527 1523 1524 1524 1527 1530 1527 1524 1522 1521 1522 1521 1522 1524 1525 1527
1515 1514 1513 1512 1512 1513 1513 1513 1513 1512 1512 1512 1511 1512 1512 1510 1512 1510 1518 1536 1527 1507 1504 1502 1500 1501 1499 1500 1500 1500 1504 1501 1500 1501 1498 1499 1500 1498 1501 1502 1502 1502 1497 1501 1511 1508 1501 1501 1503 1503 1505 1508 1508 1507 1505 1503 1507 1507 1501 1501 1503 1502 1506 1507 1508 1512 1513 1516 1521 1518 1517 1528 1532 1526 1526 1526 1529 1534 1529 1523 1522 1521 1521 1521 1521 1523 1524 1526
1515 1513 1512 1512 1512 1512 1513 1513 1512 1511 1512 1511 1510 1511 1510 1510 1511 1510 1522 1535 1521 1506 1506 1503 1501 1501 1499 1500 1500 1499 1500 1499 1501 1501 1498 1499 1499 1498 1501 1501 1500 1501 1499 1501 1507 1505 1501 1500 1500 1500 1505 1508 1506 1504 1501 1502 1505 1503 1500 1502 1502 1503 1504 1505 1509 1510 1513 1521 1526 1520 1517 1528 1533 1526 1527 1531 1530 1531 1527 1522 1521 1521 1520 1520 1520 1522 1524 1525
1514 1513 1512 1511 1512 1512 1512 1512 1511 1511 1511 1510 1510 1510 1509 1510 1512 1519 1534 1532 1516 1509 1506 1503 1503 1501 1500 1501 1501 1500 1499 1499 1499 1499 1499 1499 1499 1499 1500 1500 1498 1501 1502 1501 1502 1503 1500 1498 1498 1499 1502 1504 1503 1502 1501 1501 1502 1501 1503 1504 1504 1507 1506 1507 1512 1511 1518 1529 1525 1518 1516 1523 1531 1526 1523 1525 1520 1519 1521 1522 1521 1520 1520 1519 1519 1521 1523 1525
1513 1512 1512 1511 1511 1511 1511 1511 1511 1512 1511 1510 1510 1509 1510 1511 1515 1530 1538 1524 1515 1512 1506 1505 1504 1501 1502 1504 1504 1502 1500 1500 1499 1499 1501 1500 1500 1500 1501 1502 1501 1504 1508 1506 1505 1504 1501 1501 1501 1499 1500 1501 1501 1502 1501 1500 1500 1502 1506 1508 1512 1516 1513 1514 1517 1517 1531 1538 1522 1515 1516 1520 1530 1524 1514 1513 1510 1510 1516 1517 1518 1518 1518 1519 1519 1520 1522 1524
1512 1512 1511 1511 1511 1511 1511 1511 1511 1512 1511 1510 1510 1509 1511 1517 1525 1532 1529 1518 1518 1516 1508 1507 1505 1502 1503 1503 1503 1503 1501 1502 1500 1499 1502 1502 1503 1503 1504 1506 1505 1511 1518 1516 1512 1508 1504 1504 1503 1501 1500 1500 1503 1505 1505 1503 1503 1506 1508 1512 1520 1528 1529 1532 1533 1532 1538 1534 1517 1513 1516 1520 1524 1514 1505 1507 1508 1509 1511 1511 1512 1514 1516 1517 1518 1520 1521 1522
1511 1511 1510 1510 1511 1511 1511 1511 1512 1512 1511 1510 1510 1509 1513 1526 1532 1528 1522 1518 1518 1513 1507 1507 1504 1503 1504 1504 1504 1503 1503 1504 1501 1501 1502 1503 1506 1505 1505 1505 1503 1510 1519 1520 1518 1515 1513 1509 1504 1503 1502 1500 1503 1508 1511 1510 1509 1510 1510 1513 1524 1535 1544 1549 1546 1543 1541 1528 1515 1513 1516 1521 1521 1509 1503 1506 1506 1507 1507 1507 1509 1511 1513 1515 1516 1519 1520 1521
1511 1510 1510 1510 1510 1511 1511 1512 1512 1512 1512 1510 1511 1512 1518 1530 1529 1521 1519 1517 1513 1509 1507 1507 1505 1504 1505 1505 1505 1503 1504 1505 1501 1502 1503 1504 1507 1507 1507 1506 1503 1506 1511 1516 1521 1521 1525 1523 1511 1507 1506 1502 1502 1505 1507 1508 1509 1510 1508 1511 1520 1528 1538 1545 1543 1542 1541 1532 1520 1515 1518 1525 1523 1512 1505 1503 1503 1506 1507 1508 1510 1511 1514 1516 1517 1519 1520 1521
1510 1510 1510 1510 1510 1511 1510 1512 1512 1511 1512 1511 1512 1517 1524 1528 1523 1517 1517 1513 1509 1510 1508 1506 1506 1508 1508 1507 1505 1502 1505 1506 1502 1502 1505 1507 1511 1511 1509 1508 1507 1507 1509 1517 1522 1521 1527 1526 1510 1505 1504 1501 1502 1502 1500 1504 1510 1511 1508 1512 1518 1519 1523 1533 1539 1537 1536 1535 1528 1523 1522 1522 1517 1511 1506 1505 1506 1509 1510 1511 1512 1513 1515 1516 1517 1518 1519 1520
1510 1510 1510 1510 1510 1510 1511 1512 1512 1512 1512 1511 1515 1522 1523 1521 1517 1514 1513 1509 1509 1510 1509 1510 1509 1512 1515 1511 1507 1504 1503 1504 1503 1505 1507 1509 1512 1512 1511 1510 1509 1508 1509 1516 1522 1522 1526 1523 1509 1505 1504 1500 1503 1502 1498 1504 1511 1511 1511 1515 1515 1511 1513 1526 1537 1536 1535 1539 1536 1530 1528 1521 1517 1515 1512 1511 1513 1513 1513 1513 1513 1514 1515 1516 1516 1516 1518 1519
1510 1510 1510 1510 1510 1510 1511 1511 1512 1513 1512 1512 1518 1521 1519 1515 1511 1509 1508 1507 1509 1508 1511 1516 1515 1515 1519 1516 1511 1507 1504 1505 1506 1508 1510 1511 1514 1514 1512 1511 1511 1509 1508 1512 1517 1521 1525 1523 1513 1510 1509 1504 1502 1502 1499 1501 1506 1511 1516 1515 1510 1510 1514 1522 1534 1538 1542 1546 1539 1532 1533 1528 1526 1527 1519 1515 1517 1516 1515 1515 1515 1516 1516 1515 1515 1516 1517 1517
1510 1510 1510 1510 1510 1510 1511 1511 1512 1513 1513 1514 1519 1520 1516 1513 1508 1507 1507 1507 1508 1508 1512 1519 1516 1514 1518 1518 1515 1509 1506 1509 1509 1509 1512 1514 1517 1516 1513 1512 1512 1510 1508 1508 1514 1518 1521 1525 1519 1512 1512 1508 1502 1505 1508 1505 1504 1509 1514 1511 1512 1522 1526 1528 1536 1542 1548 1552 1545 1537 1535 1531 1529 1528 1522 1519 1519 1517 1516 1516 1516 1516 1515 1515 1514 1515 1516 1517
1510 1510 1509 1509 1510 1510 1511 1512 1512 1513 1514 1517 1522 1519 1513 1511 1508 1506 1507 1507 1508 1510 1513 1517 1515 1514 1515 1517 1516 1510 1508 1512 1511 1510 1514 1517 1519 1516 1513 1513 1513 1512 1510 1508 1514 1518 1519 1527 1526 1514 1510 1510 1507 1512 1519 1516 1509 1508 1511 1512 1515 1523 1528 1530 1535 1540 1544 1552 1553 1546 1541 1534 1527 1523 1520 1518 1516 1516 1517 1517 1515 1514 1513 1513 1514 1514 1516 1517
1510 1510 1509 1509 1510 1511 1511 1512 1513 1514 1515 1517 1520 1516 1511 1510 1509 1507 1508 1507 1508 1511 1513 1514 1514 1515 1515 1514 1515 1512 1510 1513 1512 1512 1515 1517 1519 1518 1514 1513 1513 1514 1512 1510 1515 1519 1520 1527 1530 1519 1512 1515 1518 1520 1522 1520 1517 1515 1518 1522 1522 1521 1524 1529 1534 1535 1539 1549 1556 1555 1551 1540 1525 1519 1518 1515 1513 1514 1514 1514 1514 1513 1512 1512 1513 1514 1515 1516
1510 1510 1510 1509 1510 1511 1512 1513 1513 1514 1515 1516 1516 1513 1510 1509 1509 1508 1509 1508 1509 1510 1511 1512 1512 1514 1514 1514 1514 1512 1512 1514 1514 1515 1517 1517 1519 1520 1516 1514 1514 1514 1514 1514 1517 1520 1522 1526 1531 1527 1522 1522 1523 1519 1516 1517 1518 1518 1521 1525 1526 1525 1527 1535 1542 1539 1536 1542 1548 1552 1554 1541 1524 1518 1517 1515 1514 1514 1513 1513 1513 1513 1513 1513 1513 1513 1514 1515
1511 1511 1510 1510 1511 1512 1512 1513 1514 1514 1515 1514 1513 1511 1510 1509 1509 1510 1510 1509 1510 1509 1509 1510 1511 1512 1513 1514 1514 1512 1513 1516 1516 1517 1518 1518 1519 1520 1517 1514 1514 1513 1515 1520 1522 1520 1521 1525 1530 1531 1528 1525 1521 1517 1516 1517 1515 1516 1519 1522 1524 1525 1528 1537 1546 1542 1538 1540 1542 1546 1550 1538 1522 1518 1517 1515 1515 1514 1514 1514 1513 1513 1513 1512 1512 1512 1513 1514
1511 1510 1510 1510 1512 1512 1512 1515 1515 1514 1514 1512 1510 1510 1509 1509 1510 1511 1510 1511 1511 1510 1511 1512 1512 1513 1513 1512 1513 1513 1515 1518 1518 1517 1518 1519 1519 1519 1517 1515 1515 1515 1517 1522 1523 1520 1522 1528 1533 1533 1528 1521 1517 1515 1515 1515 1516 1518 1520 1520 1522 1524 1525 1529 1534 1534 1537 1541 1541 1547 1551 1537 1520 1517 1516 1515 1515 1514 1514 1513 1512 1513 1513 1512 1512 1512 1513 1514
1511 1510 1510 1510 1511 1511 1512 1514 1515 1515 1514 1511 1510 1510 1510 1510 1511 1511 1512 1512 1512 1512 1513 1514 1513 1513 1513 1512 1513 1514 1515 1520 1522 1520 1519 1522 1522 1520 1519 1517 1517 1517 1518 1521 1522 1521 1525 1532 1536 1539 1539 1532 1526 1525 1522 1519 1521 1524 1523 1521 1520 1521 1523 1526 1528 1531 1537 1539 1537 1546 1551 1535 1519 1516 1515 1513 1514 1514 1514 1513 1512 1512 1512 1512 1513 1513 1513 1514
1511 1510 1509 1509 1511 1511 1511 1511 1512 1513 1513 1512 1511 1512 1511 1512 1512 1512 1512 1513 1512 1512 1514 1516 1514 1513 1514 1513 1514 1516 1516 1519 1523 1524 1523 1524 1524 1522 1520 1519 1519 1519 1519 1521 1520 1520 1526 1532 1534 1541 1550 1550 1545 1543 1538 1532 1529 1527 1525 1523 1521 1521 1524 1527 1530 1535 1539 1539 1536 1541 1542 1530 1519 1516 1515 1513 1514 1513 1512 1513 1512 1511 1511 1511 1511 1512 1513 1514
1511 1511 1510 1509 1510 1510 1510 1510 1510 1512 1512 1512 1513 1513 1513 1514 1513 1513 1513 1513 1514 1514 1515 1516 1515 1515 1517 1516 1518 1521 1520 1519 1523 1525 1526 1526 1526 1523 1522 1521 1521 1520 1521 1521 1520 1521 1527 1532 1533 1537 1543 1546 1545 1542 1537 1535 1535 1532 1529 1526 1523 1524 1525 1527 1533 1537 1536 1536 1537 1534 1531 1528 1521 1517 1515 1514 1514 1512 1510 1510 1511 1511 1510 1510 1510 1512 1513 1514
1511 1510 1509 1510 1510 1510 1510 1509 1510 1511 1510 1511 1513 1514 1514 1514 1514 1514 1514 1515 1515 1515 1516 1518 1517 1519 1521 1520 1521 1525 1525 1523 1524 1526 1528 1528 1525 1524 1523 1522 1522 1522 1522 1522 1521 1523 1529 1534 1535 1536 1537 1538 1538 1536 1533 1534 1535 1533 1531 1528 1525 1524 1525 1527 1532 1532 1531 1535 1537 1529 1525 1528 1523 1516 1515 1515 1513 1512 1510 1508 1509 1509 1509 1511 1513 1514 1514 1513
1510 1509 1508 1508 1509 1508 1508 1508 1507 1509 1509 1509 1511 1513 1514 1515 1515 1516 1516 1515 1516 1515 1518 1523 1523 1522 1523 1521 1523 1527 1528 1527 1528 1528 1529 1528 1526 1525 1524 1522 1522 1522 1522 1523 1522 1523 1530 1535 1535 1534 1535 1534 1533 1532 1531 1532 1532 1531 1530 1529 1525 1523 1523 1525 1526 1526 1528 1532 1532 1524 1523 1525 1520 1514 1514 1514 1512 1512 1510 1509 1510 1510 1510 1512 1514 1514 1513 1512
1510 1509 1507 1507 1506 1505 1505 1505 1505 1507 1508 1509 1511 1513 1514 1515 1516 1516 1515 1516 1518 1518 1520 1525 1527 1524 1523 1521 1522 1528 1530 1530 1532 1531 1529 1528 1528 1528 1527 1525 1524 1522 1522 1524 1523 1524 1529 1534 1533 1533 1534 1532 1531 1529 1530 1531 1532 1531 1529 1528 1525 1523 1522 1523 1524 1523 1523 1525 1524 1522 1523 1521 1515 1513 1512 1511 1510 1511 1510 1510 1510 1510 1511 1512 1512 1512 1512 1512
1510 1510 1508 1507 1506 1504 1503 1504 1505 1506 1508 1509 1512 1513 1513 1515 1516 1516 1515 1516 1521 1522 1521 1524 1526 1524 1524 1523 1523 1528 1529 1529 1531 1531 1528 1529 1530 1529 1529 1527 1525 1523 1523 1524 1525 1525 1528 1532 1532 1532 1535 1535 1531 1529 1530 1533 1533 1532 1529 1526 1524 1523 1522 1522 1523 1521 1520 1522 1521 1522 1523 1519 1513 1511 1510 1509 1509 1509 1509 1510 1510 1510 1511 1511 1511 1511 1511 1511
1510 1510 1510 1509 1508 1504 1503 1504 1504 1506 1509 1510 1512 1513 1513 1515 1516 1516 1517 1517 1519 1521 1521 1523 1524 1523 1524 1525 1526 1527 1528 1527 1528 1528 1526 1528 1528 1527 1527 1526 1525 1525 1525 1525 1525 1525 1528 1532 1532 1533 1539 1538 1533 1532 1532 1530 1530 1531 1528 1524 1523 1523 1521 1520 1520 1519 1519 1520 1520 1521 1523 1519 1513 1511 1510 1509 1508 1509 1509 1510 1510 1510 1510 1510 1510 1510 1510 1511
1509 1509 1509 1510 1509 1505 1503 1504 1504 1507 1509 1510 1510 1511 1513 1514 1514 1514 1520 1521 1519 1520 1521 1522 1522 1524 1526 1527 1527 1526 1526 1526 1526 1525 1525 1525 1525 1524 1525 1524 1523 1524 1524 1525 1526 1526 1527 1530 1531 1535 1540 1538 1535 1535 1532 1530 1534 1535 1528 1524 1524 1523 1521 1521 1519 1517 1517 1518 1520 1521 1520 1516 1512 1511 1510 1509 1508 1509 1510 1510 1510 1511 1510 1510 1511 1510 1511 1511